Regional Weather Roundup
Issued by NWS

Home | Current Version | Previous Version | Text Only | Print | Product List | Glossary Off
Versions: 1 2 3 4 5 6 7 8 9 10 11 12 13 14 15 16 17 18 19 20 21 22 23 24 25 26 27 28 29 30 31 32 33 34 35 36 37 38 39 40 41 42 43 44 45 46 47 48 49 50

000
ASUS43 KLMK 082110
RWRKY
KENTUCKY REGIONAL WEATHER ROUNDUP
NATIONAL WEATHER SERVICE LOUISVILLE KY
400 PM EST MON FEB 08 2016

NOTE "FAIR" INDICATES FEW OR NO CLOUDS BELOW 12,000 FEET
WITH NO SIGNIFICANT WEATHER AND/OR OBSTRUCTIONS TO VISIBILITY.

KYZ001>023-026-027-061>063-070>075-082200-
WESTERN AND SOUTH CENTRAL KENTUCKY

CITY           SKY/WX    TMP DP  RH WIND       PRES   REMARKS
PADUCAH        CLOUDY    33  23  66 NW18G24   29.87R WCI  22
HENDERSON      CLOUDY    30  23  74 W20G25    29.83R WCI  18
OWENSBORO      SNOW      30  28  93 NW16      29.82R VSB 1/4 WCI  19
HOPKINSVILLE   LGT SNOW  32  30  93 W10       29.83R FOG     WCI  24
BOWLING GREEN  LGT SNOW  35  28  75 NW10G22   29.79R WCI  27
GLASGOW        LGT SNOW  34  31  88 W8        29.76R WCI  27
$$

KYZ024-025-028>034-038-045-046-053-082200-
NORTH CENTRAL KENTUCKY

CITY           SKY/WX    TMP DP  RH WIND       PRES   REMARKS
LOUISVILLE/SDF LGT SNOW  34  30  85 W15       29.72R WCI  24
LOUISVILLE/LOU SNOW      33  31  92 SW13      29.72R VSB 1/2 WCI  24
FORT KNOX      LGT SNOW  32  28  86 W12       29.71R FOG     WCI  23
$$

KYZ035>037-039>044-047>052-055>060-089>105-082200-
NORTHEAST KENTUCKY

CITY           SKY/WX    TMP DP  RH WIND       PRES   REMARKS
LEXINGTON      CLOUDY    37  31  78 NW10      29.66R WCI  30
COVINGTON      CLOUDY    36  33  89 SW7       29.64R WCI  30
FRANKFORT      CLOUDY    36  29  75 W12G18    29.67R WCI  28
$$

KYZ054-064>069-076>088-106>120-082200-
SOUTHEAST KENTUCKY

CITY           SKY/WX    TMP DP  RH WIND       PRES   REMARKS
JACKSON        CLOUDY    36  29  75 VRB7      29.66S WCI  30
LONDON         CLOUDY    38  27  64 W13       29.69R WCI  30
SOMERSET       LGT SNOW  32  30  93 W16G29    29.75R WCI  21
MIDDLESBORO    CLOUDY    38  31  78 W9        29.71R WCI  31
MONTICELLO     LGT RAIN  37  30  75 W22G28    29.74R WCI  26
$$




USA.gov is the U.S. government's official web portal to all federal, state and local government web resources and services.